TimeCDT,TemperatureF,Dew PointF,Humidity,Sea Level PressureIn,VisibilityMPH,Wind Direction,Wind SpeedMPH,Gust SpeedMPH,PrecipitationIn,Events,Conditions,WindDirDegrees,DateUTC
12:56 AM,69.1,57.9,68,29.71,10.0,North,6.9,-,N/A,,Partly Cloudy,10,2012-10-18 05:56:00
1:56 AM,68.0,57.9,70,29.76,10.0,NNW,10.4,-,N/A,,Partly Cloudy,340,2012-10-18 06:56:00
2:56 AM,66.0,55.0,68,29.79,10.0,North,8.1,-,N/A,,Partly Cloudy,350,2012-10-18 07:56:00
3:56 AM,63.0,55.0,75,29.80,10.0,North,8.1,-,N/A,,Partly Cloudy,10,2012-10-18 08:56:00
4:56 AM,60.8,53.6,77,29.84,10.0,NNE,4.6,-,N/A,,Partly Cloudy,20,2012-10-18 09:56:00
5:56 AM,60.1,53.1,78,29.86,10.0,NNE,5.8,-,N/A,,Partly Cloudy,30,2012-10-18 10:56:00
6:56 AM,57.0,51.1,81,29.88,10.0,Calm,Calm,-,N/A,,Clear,0,2012-10-18 11:56:00
7:56 AM,57.0,53.1,87,29.90,10.0,NW,3.5,-,N/A,,Partly Cloudy,310,2012-10-18 12:56:00
8:56 AM,64.4,53.6,68,29.93,10.0,North,4.6,-,N/A,,Partly Cloudy,360,2012-10-18 13:56:00
9:56 AM,68.0,53.1,59,29.94,10.0,Calm,Calm,-,N/A,,Partly Cloudy,0,2012-10-18 14:56:00
10:56 AM,71.6,51.8,50,29.95,10.0,WNW,3.5,-,N/A,,Clear,300,2012-10-18 15:56:00
11:56 AM,73.9,43.0,33,29.95,10.0,NNW,8.1,-,N/A,,Clear,330,2012-10-18 16:56:00
12:56 PM,75.9,32.0,20,29.94,10.0,NNW,12.7,-,N/A,,Clear,330,2012-10-18 17:56:00
1:56 PM,77.0,30.9,19,29.91,10.0,NW,9.2,-,N/A,,Clear,320,2012-10-18 18:56:00
2:56 PM,77.0,33.1,20,29.90,10.0,WNW,8.1,-,N/A,,Clear,300,2012-10-18 19:56:00
3:56 PM,77.0,32.0,19,29.89,10.0,Variable,6.9,-,N/A,,Clear,0,2012-10-18 20:56:00
4:56 PM,75.0,32.0,21,29.88,10.0,WNW,11.5,-,N/A,,Clear,290,2012-10-18 21:56:00
5:56 PM,73.0,34.0,24,29.89,10.0,WNW,6.9,-,N/A,,Clear,300,2012-10-18 22:56:00
6:56 PM,64.0,43.0,46,29.90,10.0,West,4.6,-,N/A,,Clear,280,2012-10-18 23:56:00
7:56 PM,63.0,39.9,43,29.93,10.0,WNW,6.9,-,N/A,,Clear,300,2012-10-19 00:56:00
8:56 PM,59.0,41.0,51,29.93,10.0,West,5.8,-,N/A,,Clear,270,2012-10-19 01:56:00
9:56 PM,59.0,39.9,49,29.94,10.0,WSW,4.6,-,N/A,,Clear,250,2012-10-19 02:56:00
10:56 PM,53.1,43.0,69,29.94,10.0,WSW,4.6,-,N/A,,Clear,250,2012-10-19 03:56:00
11:56 PM,54.0,41.0,62,29.94,10.0,West,4.6,-,N/A,,Clear,260,2012-10-19 04:56:00